GW2364 Weather Reports


Display with metric or nautical units.
time (UTC)temp
F
wind
direction
speed
MPH
gust
MPH
rain 1hr
in
rain 24hr
in
rain mn
in
humidity
%
barometer
mb
20260906211500 91 46 4.0 9.0 0.00 0.00 0.00 57 1009.9
20260906210003 94 67 5.0 9.0 0.00 0.00 0.00 52 1009.9
20260906204605 94 24 1.0 5.0 0.00 0.00 0.00 50 1010.1
20260906204501 94 24 2.0 5.0 0.00 0.00 0.00 49 1010.1
20260906203000 95 199 0.0 9.0 0.00 0.00 0.00 50 1010.3
20260906201501 94 238 2.0 10.0 0.00 0.00 0.00 52 1010.3
20260906200003 93 259 1.0 8.0 0.00 0.00 0.00 54 1010.5
20260906194501 94 85 2.0 7.0 0.00 0.00 0.00 50 1010.7
20260906193100 94 227 6.0 9.0 0.00 0.00 0.00 53 1010.9
20260906193001 94 247 5.0 9.0 0.00 0.00 0.00 53 1010.8
20260906191504 94 201 1.0 5.0 0.00 0.00 0.00 49 1011.0
20260906190003 95 105 1.0 4.0 0.00 0.00 0.00 47 1011.1
20260906184501 92 217 0.0 4.0 0.00 0.00 0.00 51 1011.3
20260906183007 91 19 3.0 5.0 0.00 0.00 0.00 49 1011.4
20260906181501 89 72 1.0 4.0 0.00 0.00 0.00 57 1011.7
20260906180007 88 5 0.0 4.0 0.00 0.00 0.00 64 1012.0
20260906174600 87 77 1.0 4.0 0.00 0.00 0.00 68 1012.1
20260906174500 87 77 1.0 4.0 0.00 0.00 0.00 69 1012.1
20260906173001 86 58 2.0 4.0 0.00 0.00 0.00 70 1012.4
20260906171501 84 49 2.0 5.0 0.00 0.00 0.00 73 1012.6
20260906170009 83 42 2.0 4.0 0.00 0.00 0.00 76 1012.9
20260906164500 81 58 1.0 4.0 0.00 0.00 0.00 82 1012.9
20260906163102 81 65 2.0 4.0 0.00 0.00 0.00 82 1013.0
20260906163001 81 68 2.0 5.0 0.00 0.00 0.00 82 1013.0
20260906161600 83 86 1.0 4.0 0.00 0.00 0.00 81 1013.0
20260906161502 83 107 1.0 6.0 0.00 0.00 0.00 81 1013.0
20260906160112 84 121 1.0 4.0 0.00 0.00 0.00 78 1012.9
20260906160005 84 101 2.0 6.0 0.00 0.00 0.00 78 1012.9
20260906154603 84 102 1.0 6.0 0.00 0.00 0.00 78 1012.9
20260906153105 84 95 0.0 5.0 0.00 0.00 0.00 78 1012.9
20260906144608 84 225 1.0 3.0 0.00 0.00 0.00 76 1012.4
20260906143016 84 156 1.0 4.0 0.00 0.00 0.00 77 1012.4
20260906141507 84 262 2.0 7.0 0.00 0.00 0.00 76 1012.2
20260906140011 84 118 1.0 4.0 0.00 0.00 0.00 77 1012.1
20260906134518 83 130 2.0 6.0 0.00 0.00 0.00 80 1012.1
20260906133006 79 232 0.0 2.0 0.00 0.00 0.00 84 1012.0
20260906131506 78 232 0.0 2.0 0.00 0.00 0.00 85 1011.7
20260906130008 78 232 0.0 1.0 0.00 0.00 0.00 86 1011.4
20260906124504 78 232 0.0 1.0 0.00 0.00 0.00 86 1011.2
20260906123006 77 232 0.0 1.0 0.00 0.00 0.00 85 1011.1
20260906121504 78 232 0.0 1.0 0.00 0.00 0.00 85 1010.9
20260906120006 78 232 0.0 1.0 0.00 0.00 0.00 85 1010.7
20260906114508 78 232 0.0 0.0 0.00 0.00 0.00 84 1010.5
20260906113005 78 232 0.0 0.0 0.00 0.00 0.00 84 1010.1
20260906111504 78 232 0.0 0.0 0.00 0.00 0.00 84 1010.0
20260906110008 78 232 0.0 2.0 0.00 0.00 0.00 83 1009.8
20260906104506 79 232 0.0 1.0 0.00 0.00 0.00 83 1009.8
20260906103004 79 232 0.0 1.0 0.00 0.00 0.00 83 1009.9
20260906101504 79 232 0.0 2.0 0.00 0.00 0.00 82 1009.8
20260906100006 79 232 0.0 1.0 0.00 0.00 0.00 82 1009.7
20260906094504 79 232 1.0 3.0 0.00 0.00 0.00 81 1009.9
20260906093003 79 256 1.0 3.0 0.00 0.00 0.00 81 1009.9
20260906091504 79 236 1.0 3.0 0.00 0.00 0.00 81 1009.9
20260906090007 80 228 0.0 2.0 0.00 0.00 0.00 80 1009.9
20260906084503 80 228 1.0 4.0 0.00 0.00 0.00 80 1009.8
20260906083002 80 238 1.0 3.0 0.00 0.00 0.00 79 1009.8
20260906081503 80 242 1.0 4.0 0.00 0.00 0.00 78 1009.9
20260906080006 81 233 0.0 4.0 0.00 0.00 0.00 78 1010.1
20260906074504 81 222 0.0 3.0 0.00 0.00 0.00 77 1010.3
20260906073003 82 207 1.0 4.0 0.00 0.00 0.00 76 1010.4
20260906071503 82 223 1.0 4.0 0.00 0.00 0.00 76 1010.5
20260906070005 82 261 2.0 5.0 0.00 0.00 0.00 75 1010.7
20260906064503 82 197 1.0 4.0 0.00 0.00 0.00 75 1010.8
20260906063004 83 224 1.0 5.0 0.00 0.00 0.00 74 1010.9
20260906061504 83 309 0.0 4.0 0.00 0.00 0.00 74 1011.1
20260906060010 83 225 1.0 3.0 0.00 0.00 0.00 73 1011.2
20260906054505 83 130 1.0 6.0 0.00 0.00 0.00 73 1011.1
20260906053006 84 332 0.0 4.0 0.00 0.00 0.00 72 1010.8
20260906051506 84 67 0.0 4.0 0.00 0.00 0.00 71 1010.9
20260906050011 84 355 0.0 3.0 0.00 0.00 0.00 71 1011.0
20260906044506 85 87 0.0 5.0 0.00 0.00 0.00 70 1011.0
20260906043008 85 128 0.0 8.0 0.00 0.00 0.00 70 1011.0
20260906041507 85 86 1.0 7.0 0.00 0.00 0.00 69 1011.0
20260906040009 86 109 3.0 9.0 0.00 0.00 0.00 68 1010.9
20260906034509 86 43 1.0 8.0 0.00 0.00 0.00 66 1010.9
20260906033006 87 176 4.0 8.0 0.00 0.00 0.00 65 1010.9
20260906031506 87 76 2.0 7.0 0.00 0.00 0.00 62 1010.7
20260906030008 87 103 4.0 9.0 0.00 0.00 0.00 61 1010.4
20260906024505 88 71 2.0 8.0 0.00 0.00 0.00 60 1010.0
20260906023015 88 50 2.0 9.0 0.00 0.00 0.00 59 1009.5
20260906021506 89 58 2.0 6.0 0.00 0.00 0.00 59 1009.2
20260906020007 89 95 2.0 5.0 0.00 0.00 0.00 58 1008.9
20260906014505 89 59 2.0 9.0 0.00 0.00 0.00 56 1008.9
20260906013005 90 46 2.0 5.0 0.00 0.00 0.00 54 1008.8
20260906011505 91 119 2.0 8.0 0.00 0.00 0.00 53 1008.8
20260906010007 92 56 3.0 8.0 0.00 0.00 0.00 50 1008.7
20260906004509 93 70 3.0 9.0 0.00 0.00 0.00 47 1008.5
20260906003005 94 44 3.0 10.0 0.00 0.00 0.00 45 1008.4
20260906001505 95 83 4.0 9.0 0.00 0.00 0.00 43 1008.4
20260906000007 96 46 2.0 5.0 0.00 0.00 0.00 42 1008.3
20260905234505 97 74 2.0 5.0 0.00 0.00 0.00 41 1008.3
20260905233013 98 105 1.0 6.0 0.00 0.00 0.00 40 1008.2
20260905231505 98 56 3.0 6.0 0.00 0.00 0.00 39 1008.2
20260905230008 99 138 2.0 7.0 0.00 0.00 0.00 37 1008.3
20260905224505 98 234 1.0 5.0 0.00 0.00 0.00 37 1008.2
20260905223006 99 44 2.0 4.0 0.00 0.00 0.00 37 1008.3
20260905221507 99 63 1.0 8.0 0.00 0.00 0.00 37 1008.5
20260905220008 99 82 1.0 7.0 0.00 0.00 0.00 37 1008.6
20260905214505 98 33 1.0 6.0 0.00 0.00 0.00 39 1008.6
20260905213006 99 59 3.0 9.0 0.00 0.00 0.00 38 1008.6